Location: Boda
(47.1872°N, 9.5454°E)
Time: 09:42:51
(UTC+00:00)

Cosmos 2058 Rocket - Pass Details

Date: 14 May 2021
Orbit: 611 x 638 km, 82.5° (Epoch: 17 June)

Event Time Altitude Azimuth Distance (km) Brightness Sun altitude
Rises 03:08:17 0° 349° (N) 2,946 6.9 -6.4°
Reaches altitude 10° 03:10:32 10° 349° (N) 2,036 6.1 -6.1°
Maximum altitude 03:15:03 81° 263° (W) 652 3.1 -5.4°
Drops below altitude 10° 03:19:33 10° 176° (S) 2,024 5.4 -4.8°
Sets 03:21:47 0° 175° (S) 2,927 6.2 -4.5°
